SM7GXQ Weather Reports


Display with metric or nautical units.
time (UTC)temp
F
wind
direction
speed
MPH
gust
MPH
rain 1hr
in
rain 24hr
in
rain mn
in
humidity
%
barometer
mb
20260507141504 57 105 6.0 17.0 0.00 0.00 0.00 27 1015.4
20260507140005 57 62 6.0 17.0 0.00 0.00 0.00 27 1015.3
20260507130005 57 68 3.0 15.0 0.00 0.00 0.00 35 1014.9
20260507124504 57 84 3.0 12.0 0.00 0.00 0.00 37 1014.9
20260507123005 57 53 5.0 12.0 0.00 0.00 0.00 36 1014.9
20260507121504 57 74 6.0 12.0 0.00 0.00 0.00 36 1014.8
20260507110005 54 331 8.0 12.0 0.00 0.00 0.00 34 1014.8
20260507100005 53 327 7.0 10.0 0.00 0.00 0.00 32 1014.5
20260507093004 53 338 6.0 9.0 0.00 0.00 0.00 30 1014.5
20260507083005 52 339 5.0 8.0 0.00 0.00 0.00 48 1014.2
20260507081504 51 9 5.0 8.0 0.00 0.00 0.00 51 1014.1
20260507064504 48 7 7.0 12.0 0.00 0.00 0.00 68 1013.7
20260507061504 47 0 7.0 10.0 0.00 0.00 0.00 72 1013.7
20260507060003 46 7 7.0 10.0 0.00 0.00 0.00 76 1013.7
20260507053005 45 346 6.0 9.0 0.00 0.00 0.00 81 1013.5
20260507051504 44 349 6.0 8.0 0.00 0.00 0.00 82 1013.5
20260507050005 44 349 7.0 9.0 0.00 0.00 0.00 83 1013.5
20260507040004 36 50 2.0 3.0 0.00 0.00 0.00 86 1013.1
20260507034504 35 48 1.0 3.0 0.00 0.00 0.00 84 1013.1
20260507030004 36 46 0.0 1.0 0.00 0.00 0.00 80 1012.8
20260507020003 34 51 2.0 3.0 0.00 0.00 0.00 85 1012.6
20260507010003 35 51 0.0 0.0 0.00 0.00 0.00 83 1012.5
20260507001503 35 50 2.0 3.0 0.00 0.00 0.00 84 1012.5
20260507000004 36 50 0.0 2.0 0.00 0.00 0.00 82 1012.5
20260506224504 37 50 0.0 0.0 0.00 0.00 0.00 79 1012.4
20260506221505 38 50 0.0 2.0 0.00 0.00 0.00 77 1012.2
20260506211504 39 50 0.0 2.0 0.00 0.00 0.00 72 1011.9
20260506210004 41 50 0.0 0.0 0.00 0.00 0.00 70 1011.9
20260506201504 44 50 0.0 0.0 0.00 0.00 0.00 62 1011.9
20260506200004 44 50 0.0 3.0 0.00 0.00 0.00 61 1011.9
20260506191504 46 71 1.0 3.0 0.00 0.00 0.00 54 1011.8
20260506190005 47 63 1.0 5.0 0.00 0.00 0.00 51 1011.4
20260506180006 48 70 4.0 12.0 0.00 0.00 0.00 48 1011.2
20260506173005 48 67 7.0 12.0 0.00 0.00 0.00 44 1011.2
20260506164505 49 80 5.0 12.0 0.00 0.00 0.00 47 1011.5
20260506154504 49 77 5.0 15.0 0.00 0.00 0.00 46 1011.3
20260506151504 50 82 5.0 13.0 0.00 0.00 0.00 51 1011.3
20260506144504 50 68 8.0 14.0 0.00 0.00 0.00 51 1011.3